COSMOS 1823 DEB

Satellite information

Favourite Embed

Satellite Type and Status

DEBRISIN ORBIT

Key statistics

Satellite COSMOS 1823 DEB at a glance.

Uptime

14183

Days in orbit

Revolutions

≈ 12.7

Per day

Orbit

LEO

Low Earth Orbit

Inclination

73.4

Latest

Satellite identification and parameters

Extended collection of information and parameters for COSMOS 1823 DEB.

Object identification

Identified? True

Debris? True

Object name: COSMOS 1823 DEB

International designator: 1987-020E

Object number (NORAD): 18727

Object ID (CCSDS): 18727

Country: COMMONWEALTH OF INDEPENDENT STATES (CIS)

Current information (Y/N): Y

RCS size: MEDIUM

Orbital parameters

Period: 113.819 minutes

Inclination: 73.3593 deg

SMA: 7779.851 km

Apoapsis: 1471.5 km

Periapsis: 1331.931 km

RAAN: 268.9084 deg

Eccentricy: 0.00896988

Argument of periapsis: 197.034 deg

Mean anomaly: 237.4868 deg

Mean motion: 12.65161248 rev/day

Mean motion (dot): 0.00000018 rev/day2

B* drag term: 0.00020086397 1/REarth

Two-line elements (TLE)

Creation date: Dec. 19, 2025, 10:18 a.m.

Reference frame: TEME

Reference center: EARTH

Epoch: Dec. 19, 2025, 4:44 a.m. UTC

TLE line 0: 0 COSMOS 1823 DEB

TLE line 1: 1 18727U 87020E 25353.19779148 .00000018 00000-0 20086-3 0 9994

TLE line 2: 2 18727 73.3593 268.9084 0089699 197.0340 237.4868 12.65161248754065

Live tracking on map

Real-time ground track for satellite COSMOS 1823 DEB.

In-orbit conjunctions

A list of the most updated potential collisions computed for object COSMOS 1823 DEB.

Target Orbit TCA Probability of collision Miss distance Type
DELTA 1 R/B SSO 2025-01-13 02:55:23 0.000149157 183.0 (m) ROCKET BODY

Associated space launch

A satellite for the GEO-IK geodetic system

COSMOS 1823 DEB was lifted into orbit during the mission ‘Tsiklon-3 | Geo-IK 9’, on board a Tsiklon-3 space rocket.

The launch took place on Feb. 20, 1987, 4:43 a.m. from 32/2.

For more information about the launch, click the button.

Launch to space Tsiklon-3 | Geo-IK 9
Tsiklon-3 | Geo-IK 9

Agency: N/A

Status: Launch Successful

Launch date: Feb. 20, 1987, 4:43 a.m. UTC

Rocket: Tsiklon-3

Launch pad: 32/2

Location: Plesetsk Cosmodrome, Russian Federation

...

Latest news about this satellite

There are no fresh news available about this satellite. Check back as we update our databases every day.


Newsletter sign-up

Weekly statistics, charts and insights to help you stay on top of the space industry.